Location: Newark
(37.8444°N, 127.0614°E)
Time: 01:22:59
(UTC+00:00)

XW-2F - Pass Details

Date: 23 January 2020
Orbit: 501 x 524 km, 97.5° (Epoch: 21 February)

Event Time Altitude Azimuth Distance (km) Brightness Sun altitude
Rises 20:51:26 0° 27° (NNE) 2,607 ? -21.8°
Reaches altitude 10° 20:53:54 10° 43° (NE) 1,715 ? -21.4°
Maximum altitude 20:56:48 22° 95° (E) 1,148 ? -20.8°
Drops below altitude 10° 20:59:40 10° 147° (SSE) 1,703 ? -20.2°
Sets 21:02:06 0° 163° (SSE) 2,581 ? -19.8°
